owner,sensor,date,latitude,longitude,vertical_datum,sea_water_practical_salinity,qcFlag 
NERRS,ioos:station:NOAA.NERRS:rkblhwq:1,2017-07-01T00:45:00Z,26.0257,-81.7332,1.33,24.2,1111122 
NERRS,ioos:station:NOAA.NERRS:rkblhwq:1,2017-07-01T01:45:00Z,26.0257,-81.7332,1.25,23.1,1111122 
NERRS,ioos:station:NOAA.NERRS:rkblhwq:1,2017-07-01T02:45:00Z,26.0257,-81.7332,1.16,23.2,1111122 
NERRS,ioos:station:NOAA.NERRS:rkblhwq:1,2017-07-01T03:45:00Z,26.0257,-81.7332,1.04,23.4,1111122 
NERRS,ioos:station:NOAA.NERRS:rkblhwq:1,2017-07-01T04:45:00Z,26.0257,-81.7332,0.94,23.1,1111122 
NERRS,ioos:station:NOAA.NERRS:rkblhwq:1,2017-07-01T05:45:00Z,26.0257,-81.7332,0.86,20.7,1111122 
NERRS,ioos:station:NOAA.NERRS:rkblhwq:1,2017-07-01T06:45:00Z,26.0257,-81.7332,0.84,20.0,1111122 
NERRS,ioos:station:NOAA.NERRS:rkblhwq:1,2017-07-01T07:45:00Z,26.0257,-81.7332,0.93,23.1,1111122 
NERRS,ioos:station:NOAA.NERRS:rkblhwq:1,2017-07-01T08:45:00Z,26.0257,-81.7332,1.06,21.1,1111122 
NERRS,ioos:station:NOAA.NERRS:rkblhwq:1,2017-07-01T09:45:00Z,26.0257,-81.7332,1.2,22.7,1111122 
NERRS,ioos:station:NOAA.NERRS:rkblhwq:1,2017-07-01T10:45:00Z,26.0257,-81.7332,1.32,23.6,1111122 
NERRS,ioos:station:NOAA.NERRS:rkblhwq:1,2017-07-01T11:45:00Z,26.0257,-81.7332,1.42,24.6,1111122 
NERRS,ioos:station:NOAA.NERRS:rkblhwq:1,2017-07-01T12:45:00Z,26.0257,-81.7332,1.46,25.1,1111122 
NERRS,ioos:station:NOAA.NERRS:rkblhwq:1,2017-07-01T13:45:00Z,26.0257,-81.7332,1.4,22.9,1111122 
NERRS,ioos:station:NOAA.NERRS:rkblhwq:1,2017-07-01T14:45:00Z,26.0257,-81.7332,1.3,22.8,1111122 
NERRS,ioos:station:NOAA.NERRS:rkblhwq:1,2017-07-01T15:45:00Z,26.0257,-81.7332,1.2,22.3,1111122 
NERRS,ioos:station:NOAA.NERRS:rkblhwq:1,2017-07-01T16:45:00Z,26.0257,-81.7332,1.09,22.1,1111122 
NERRS,ioos:station:NOAA.NERRS:rkblhwq:1,2017-07-01T17:45:00Z,26.0257,-81.7332,0.99,22.8,1111122 
NERRS,ioos:station:NOAA.NERRS:rkblhwq:1,2017-07-01T18:45:00Z,26.0257,-81.7332,0.9,22.4,1111122 
NERRS,ioos:station:NOAA.NERRS:rkblhwq:1,2017-07-01T19:45:00Z,26.0257,-81.7332,0.9,22.3,1111122 
NERRS,ioos:station:NOAA.NERRS:rkblhwq:1,2017-07-01T20:45:00Z,26.0257,-81.7332,0.97,20.5,1111122 
NERRS,ioos:station:NOAA.NERRS:rkblhwq:1,2017-07-01T21:45:00Z,26.0257,-81.7332,1.07,21.2,1111122 
NERRS,ioos:station:NOAA.NERRS:rkblhwq:1,2017-07-01T22:45:00Z,26.0257,-81.7332,1.16,23.6,1111122 
NERRS,ioos:station:NOAA.NERRS:rkblhwq:1,2017-07-01T23:45:00Z,26.0257,-81.7332,1.24,23.1,1111122 
NERRS,ioos:station:NOAA.NERRS:rkblhwq:1,2017-07-02T00:45:00Z,26.0257,-81.7332,1.29,24.2,1111122 
NERRS,ioos:station:NOAA.NERRS:rkblhwq:1,2017-07-02T01:45:00Z,26.0257,-81.7332,1.27,23.9,1111122 
NERRS,ioos:station:NOAA.NERRS:rkblhwq:1,2017-07-02T02:45:00Z,26.0257,-81.7332,1.19,21.4,1111122 
NERRS,ioos:station:NOAA.NERRS:rkblhwq:1,2017-07-02T03:45:00Z,26.0257,-81.7332,1.11,22.1,1111122 
NERRS,ioos:station:NOAA.NERRS:rkblhwq:1,2017-07-02T04:45:00Z,26.0257,-81.7332,1.03,22.8,1111122 
NERRS,ioos:station:NOAA.NERRS:rkblhwq:1,2017-07-02T05:45:00Z,26.0257,-81.7332,0.96,22.4,1111122 
NERRS,ioos:station:NOAA.NERRS:rkblhwq:1,2017-07-02T06:45:00Z,26.0257,-81.7332,0.92,20.4,1111122 
NERRS,ioos:station:NOAA.NERRS:rkblhwq:1,2017-07-02T07:45:00Z,26.0257,-81.7332,0.92,21.0,1111122 
NERRS,ioos:station:NOAA.NERRS:rkblhwq:1,2017-07-02T08:45:00Z,26.0257,-81.7332,1.01,23.2,1111122 
NERRS,ioos:station:NOAA.NERRS:rkblhwq:1,2017-07-02T09:45:00Z,26.0257,-81.7332,1.13,21.5,1111122 
NERRS,ioos:station:NOAA.NERRS:rkblhwq:1,2017-07-02T10:45:00Z,26.0257,-81.7332,1.25,23.1,1111122 
NERRS,ioos:station:NOAA.NERRS:rkblhwq:1,2017-07-02T11:45:00Z,26.0257,-81.7332,1.36,24.1,1111122 
NERRS,ioos:station:NOAA.NERRS:rkblhwq:1,2017-07-02T12:45:00Z,26.0257,-81.7332,1.44,24.9,1111122 
NERRS,ioos:station:NOAA.NERRS:rkblhwq:1,2017-07-02T13:45:00Z,26.0257,-81.7332,1.44,24.9,1111122 
NERRS,ioos:station:NOAA.NERRS:rkblhwq:1,2017-07-02T14:45:00Z,26.0257,-81.7332,1.37,23.5,1111122 
NERRS,ioos:station:NOAA.NERRS:rkblhwq:1,2017-07-02T15:45:00Z,26.0257,-81.7332,1.26,22.8,1111122 
NERRS,ioos:station:NOAA.NERRS:rkblhwq:1,2017-07-02T16:45:00Z,26.0257,-81.7332,1.14,19.8,1111122 
NERRS,ioos:station:NOAA.NERRS:rkblhwq:1,2017-07-02T17:45:00Z,26.0257,-81.7332,1.03,21.8,1111122 
NERRS,ioos:station:NOAA.NERRS:rkblhwq:1,2017-07-02T18:45:00Z,26.0257,-81.7332,0.92,21.8,1111122 
NERRS,ioos:station:NOAA.NERRS:rkblhwq:1,2017-07-02T19:45:00Z,26.0257,-81.7332,0.83,23.1,1111122 
NERRS,ioos:station:NOAA.NERRS:rkblhwq:1,2017-07-02T20:45:00Z,26.0257,-81.7332,0.8,18.6,1111122 
NERRS,ioos:station:NOAA.NERRS:rkblhwq:1,2017-07-02T21:45:00Z,26.0257,-81.7332,0.87,20.7,1111122 
NERRS,ioos:station:NOAA.NERRS:rkblhwq:1,2017-07-02T22:45:00Z,26.0257,-81.7332,0.98,21.3,1111122 
NERRS,ioos:station:NOAA.NERRS:rkblhwq:1,2017-07-02T23:45:00Z,26.0257,-81.7332,1.09,22.1,1111122 
NERRS,ioos:station:NOAA.NERRS:rkblhwq:1,2017-07-03T00:45:00Z,26.0257,-81.7332,1.19,22.8,1111122 
NERRS,ioos:station:NOAA.NERRS:rkblhwq:1,2017-07-03T01:45:00Z,26.0257,-81.7332,1.27,23.4,1111122 
NERRS,ioos:station:NOAA.NERRS:rkblhwq:1,2017-07-03T02:45:00Z,26.0257,-81.7332,1.3,23.7,1111122 
NERRS,ioos:station:NOAA.NERRS:rkblhwq:1,2017-07-03T03:45:00Z,26.0257,-81.7332,1.26,22.6,1111122 
NERRS,ioos:station:NOAA.NERRS:rkblhwq:1,2017-07-03T04:45:00Z,26.0257,-81.7332,1.16,22.7,1111122 
NERRS,ioos:station:NOAA.NERRS:rkblhwq:1,2017-07-03T05:45:00Z,26.0257,-81.7332,1.07,22.7,1111122 
NERRS,ioos:station:NOAA.NERRS:rkblhwq:1,2017-07-03T06:45:00Z,26.0257,-81.7332,0.98,22.3,1111122 
NERRS,ioos:station:NOAA.NERRS:rkblhwq:1,2017-07-03T07:45:00Z,26.0257,-81.7332,0.92,21.9,1111122 
NERRS,ioos:station:NOAA.NERRS:rkblhwq:1,2017-07-03T08:45:00Z,26.0257,-81.7332,0.93,21.8,1111122 
NERRS,ioos:station:NOAA.NERRS:rkblhwq:1,2017-07-03T09:45:00Z,26.0257,-81.7332,1.03,22.9,1111122 
NERRS,ioos:station:NOAA.NERRS:rkblhwq:1,2017-07-03T10:45:00Z,26.0257,-81.7332,1.14,21.6,1111122 
NERRS,ioos:station:NOAA.NERRS:rkblhwq:1,2017-07-03T11:45:00Z,26.0257,-81.7332,1.27,23.0,1111122 
NERRS,ioos:station:NOAA.NERRS:rkblhwq:1,2017-07-03T12:45:00Z,26.0257,-81.7332,1.38,23.9,1111122 
NERRS,ioos:station:NOAA.NERRS:rkblhwq:1,2017-07-03T13:45:00Z,26.0257,-81.7332,1.46,24.9,1111122 
NERRS,ioos:station:NOAA.NERRS:rkblhwq:1,2017-07-03T14:45:00Z,26.0257,-81.7332,1.48,24.9,1111122 
NERRS,ioos:station:NOAA.NERRS:rkblhwq:1,2017-07-03T15:45:00Z,26.0257,-81.7332,1.41,22.9,1111122 
NERRS,ioos:station:NOAA.NERRS:rkblhwq:1,2017-07-03T16:45:00Z,26.0257,-81.7332,1.28,22.9,1111122 
NERRS,ioos:station:NOAA.NERRS:rkblhwq:1,2017-07-03T17:45:00Z,26.0257,-81.7332,1.14,23.0,1111122 
NERRS,ioos:station:NOAA.NERRS:rkblhwq:1,2017-07-03T18:45:00Z,26.0257,-81.7332,1.0,23.6,1111122 
NERRS,ioos:station:NOAA.NERRS:rkblhwq:1,2017-07-03T19:45:00Z,26.0257,-81.7332,0.88,22.7,1111122 
NERRS,ioos:station:NOAA.NERRS:rkblhwq:1,2017-07-03T20:45:00Z,26.0257,-81.7332,0.78,20.8,1111122 
NERRS,ioos:station:NOAA.NERRS:rkblhwq:1,2017-07-03T21:45:00Z,26.0257,-81.7332,0.75,18.9,1111122 
NERRS,ioos:station:NOAA.NERRS:rkblhwq:1,2017-07-03T22:45:00Z,26.0257,-81.7332,0.82,20.1,1111122 
NERRS,ioos:station:NOAA.NERRS:rkblhwq:1,2017-07-03T23:45:00Z,26.0257,-81.7332,0.93,21.5,1111122 
NERRS,ioos:station:NOAA.NERRS:rkblhwq:1,2017-07-04T00:45:00Z,26.0257,-81.7332,1.06,22.0,1111122 
NERRS,ioos:station:NOAA.NERRS:rkblhwq:1,2017-07-04T01:45:00Z,26.0257,-81.7332,1.17,22.9,1111122 
NERRS,ioos:station:NOAA.NERRS:rkblhwq:1,2017-07-04T02:45:00Z,26.0257,-81.7332,1.25,23.3,1111122 
NERRS,ioos:station:NOAA.NERRS:rkblhwq:1,2017-07-04T03:45:00Z,26.0257,-81.7332,1.27,24.0,1111122 
NERRS,ioos:station:NOAA.NERRS:rkblhwq:1,2017-07-04T04:45:00Z,26.0257,-81.7332,1.24,22.8,1111122 
NERRS,ioos:station:NOAA.NERRS:rkblhwq:1,2017-07-04T05:45:00Z,26.0257,-81.7332,1.18,21.8,1111122 
NERRS,ioos:station:NOAA.NERRS:rkblhwq:1,2017-07-04T06:45:00Z,26.0257,-81.7332,1.1,20.6,1111122 
NERRS,ioos:station:NOAA.NERRS:rkblhwq:1,2017-07-04T08:45:00Z,26.0257,-81.7332,0.97,22.2,1111122 
NERRS,ioos:station:NOAA.NERRS:rkblhwq:1,2017-07-04T09:45:00Z,26.0257,-81.7332,1.02,22.7,1111122 
NERRS,ioos:station:NOAA.NERRS:rkblhwq:1,2017-07-04T10:45:00Z,26.0257,-81.7332,1.13,23.8,1111122 
NERRS,ioos:station:NOAA.NERRS:rkblhwq:1,2017-07-04T11:45:00Z,26.0257,-81.7332,1.25,22.4,1111122 
NERRS,ioos:station:NOAA.NERRS:rkblhwq:1,2017-07-04T12:45:00Z,26.0257,-81.7332,1.35,23.8,1111122 
NERRS,ioos:station:NOAA.NERRS:rkblhwq:1,2017-07-04T13:45:00Z,26.0257,-81.7332,1.43,24.8,1111122 
NERRS,ioos:station:NOAA.NERRS:rkblhwq:1,2017-07-04T14:45:00Z,26.0257,-81.7332,1.5,25.1,1111122 
NERRS,ioos:station:NOAA.NERRS:rkblhwq:1,2017-07-04T15:45:00Z,26.0257,-81.7332,1.5,25.3,1111122 
NERRS,ioos:station:NOAA.NERRS:rkblhwq:1,2017-07-04T16:45:00Z,26.0257,-81.7332,1.39,23.2,1111122 
NERRS,ioos:station:NOAA.NERRS:rkblhwq:1,2017-07-04T17:45:00Z,26.0257,-81.7332,1.25,23.2,1111122 
NERRS,ioos:station:NOAA.NERRS:rkblhwq:1,2017-07-04T18:45:00Z,26.0257,-81.7332,1.18,18.0,1111122 
NERRS,ioos:station:NOAA.NERRS:rkblhwq:1,2017-07-04T19:45:00Z,26.0257,-81.7332,1.01,20.8,1111122 
NERRS,ioos:station:NOAA.NERRS:rkblhwq:1,2017-07-04T20:45:00Z,26.0257,-81.7332,0.86,17.5,1111122 
NERRS,ioos:station:NOAA.NERRS:rkblhwq:1,2017-07-04T21:45:00Z,26.0257,-81.7332,0.74,16.5,1111122 
NERRS,ioos:station:NOAA.NERRS:rkblhwq:1,2017-07-04T22:45:00Z,26.0257,-81.7332,0.68,13.2,1111122 
NERRS,ioos:station:NOAA.NERRS:rkblhwq:1,2017-07-04T23:45:00Z,26.0257,-81.7332,0.75,15.1,1111122 
NERRS,ioos:station:NOAA.NERRS:rkblhwq:1,2017-07-05T01:45:00Z,26.0257,-81.7332,1.02,19.7,1111122 
NERRS,ioos:station:NOAA.NERRS:rkblhwq:1,2017-07-05T02:45:00Z,26.0257,-81.7332,1.16,21.1,1111122 
NERRS,ioos:station:NOAA.NERRS:rkblhwq:1,2017-07-05T03:15:00Z,26.0257,-81.7332,1.22,21.8,1111122 
NERRS,ioos:station:NOAA.NERRS:rkblhwq:1,2017-07-05T04:45:00Z,26.0257,-81.7332,1.32,22.6,1111122 
NERRS,ioos:station:NOAA.NERRS:rkblhwq:1,2017-07-05T05:45:00Z,26.0257,-81.7332,1.28,20.8,1111122 
NERRS,ioos:station:NOAA.NERRS:rkblhwq:1,2017-07-05T06:45:00Z,26.0257,-81.7332,1.18,20.8,1111122 
NERRS,ioos:station:NOAA.NERRS:rkblhwq:1,2017-07-05T07:45:00Z,26.0257,-81.7332,1.08,21.1,1111122 
NERRS,ioos:station:NOAA.NERRS:rkblhwq:1,2017-07-05T09:45:00Z,26.0257,-81.7332,1.02,19.4,1111122 
NERRS,ioos:station:NOAA.NERRS:rkblhwq:1,2017-07-05T10:45:00Z,26.0257,-81.7332,1.07,22.1,1111122 
NERRS,ioos:station:NOAA.NERRS:rkblhwq:1,2017-07-05T11:45:00Z,26.0257,-81.7332,1.17,21.1,1111122 
NERRS,ioos:station:NOAA.NERRS:rkblhwq:1,2017-07-05T12:45:00Z,26.0257,-81.7332,4.06,21.2,1111122 
NERRS,ioos:station:NOAA.NERRS:rkblhwq:1,2017-07-05T13:45:00Z,26.0257,-81.7332,4.4,23.6,1111122 
NERRS,ioos:station:NOAA.NERRS:rkblhwq:1,2017-07-05T14:45:00Z,26.0257,-81.7332,4.69,22.9,1111122 
NERRS,ioos:station:NOAA.NERRS:rkblhwq:1,2017-07-05T15:45:00Z,26.0257,-81.7332,4.85,25.0,1111122 
NERRS,ioos:station:NOAA.NERRS:rkblhwq:1,2017-07-05T16:45:00Z,26.0257,-81.7332,4.68,22.1,1111122 
NERRS,ioos:station:NOAA.NERRS:rkblhwq:1,2017-07-05T17:45:00Z,26.0257,-81.7332,4.29,23.4,1111122 
NERRS,ioos:station:NOAA.NERRS:rkblhwq:1,2017-07-05T18:45:00Z,26.0257,-81.7332,3.88,22.0,1111122 
NERRS,ioos:station:NOAA.NERRS:rkblhwq:1,2017-07-05T19:45:00Z,26.0257,-81.7332,3.38,20.6,1111122 
NERRS,ioos:station:NOAA.NERRS:rkblhwq:1,2017-07-05T20:45:00Z,26.0257,-81.7332,2.9,22.1,1111122 
NERRS,ioos:station:NOAA.NERRS:rkblhwq:1,2017-07-05T21:45:00Z,26.0257,-81.7332,2.48,20.8,1111122 
NERRS,ioos:station:NOAA.NERRS:rkblhwq:1,2017-07-05T22:45:00Z,26.0257,-81.7332,2.15,19.0,1111122 
NERRS,ioos:station:NOAA.NERRS:rkblhwq:1,2017-07-05T23:45:00Z,26.0257,-81.7332,2.17,14.7,1111122 
NERRS,ioos:station:NOAA.NERRS:rkblhwq:1,2017-07-06T00:45:00Z,26.0257,-81.7332,2.54,19.0,1111122 
NERRS,ioos:station:NOAA.NERRS:rkblhwq:1,2017-07-06T01:45:00Z,26.0257,-81.7332,2.97,18.9,1111122 
NERRS,ioos:station:NOAA.NERRS:rkblhwq:1,2017-07-06T02:45:00Z,26.0257,-81.7332,3.42,19.8,1111122 
NERRS,ioos:station:NOAA.NERRS:rkblhwq:1,2017-07-06T03:45:00Z,26.0257,-81.7332,3.86,21.1,1111122 
NERRS,ioos:station:NOAA.NERRS:rkblhwq:1,2017-07-06T04:45:00Z,26.0257,-81.7332,4.24,21.9,1111122 
NERRS,ioos:station:NOAA.NERRS:rkblhwq:1,2017-07-06T05:45:00Z,26.0257,-81.7332,4.34,21.8,1111122 
NERRS,ioos:station:NOAA.NERRS:rkblhwq:1,2017-07-06T06:45:00Z,26.0257,-81.7332,4.04,21.1,1111122 
NERRS,ioos:station:NOAA.NERRS:rkblhwq:1,2017-07-06T07:45:00Z,26.0257,-81.7332,3.68,19.9,1111122 
NERRS,ioos:station:NOAA.NERRS:rkblhwq:1,2017-07-06T08:45:00Z,26.0257,-81.7332,3.35,20.1,1111122 
NERRS,ioos:station:NOAA.NERRS:rkblhwq:1,2017-07-06T09:45:00Z,26.0257,-81.7332,3.07,19.2,1111122 
NERRS,ioos:station:NOAA.NERRS:rkblhwq:1,2017-07-06T10:45:00Z,26.0257,-81.7332,2.94,18.8,1111122 
NERRS,ioos:station:NOAA.NERRS:rkblhwq:1,2017-07-06T11:45:00Z,26.0257,-81.7332,3.22,20.8,1111122 
NERRS,ioos:station:NOAA.NERRS:rkblhwq:1,2017-07-06T12:45:00Z,26.0257,-81.7332,3.7,18.9,1111122 
NERRS,ioos:station:NOAA.NERRS:rkblhwq:1,2017-07-06T13:45:00Z,26.0257,-81.7332,4.18,21.4,1111122 
NERRS,ioos:station:NOAA.NERRS:rkblhwq:1,2017-07-06T14:45:00Z,26.0257,-81.7332,4.6,23.1,1111122 
NERRS,ioos:station:NOAA.NERRS:rkblhwq:1,2017-07-06T15:45:00Z,26.0257,-81.7332,4.86,23.4,1111122 
NERRS,ioos:station:NOAA.NERRS:rkblhwq:1,2017-07-06T16:45:00Z,26.0257,-81.7332,4.91,24.5,1111122 
NERRS,ioos:station:NOAA.NERRS:rkblhwq:1,2017-07-06T17:45:00Z,26.0257,-81.7332,4.61,21.7,1111122 
NERRS,ioos:station:NOAA.NERRS:rkblhwq:1,2017-07-06T18:45:00Z,26.0257,-81.7332,4.17,22.2,1111122 
NERRS,ioos:station:NOAA.NERRS:rkblhwq:1,2017-07-06T19:45:00Z,26.0257,-81.7332,3.73,19.0,1111122 
NERRS,ioos:station:NOAA.NERRS:rkblhwq:1,2017-07-06T20:45:00Z,26.0257,-81.7332,3.28,19.0,1111122 
NERRS,ioos:station:NOAA.NERRS:rkblhwq:1,2017-07-06T21:45:00Z,26.0257,-81.7332,2.71,17.0,1111122 
NERRS,ioos:station:NOAA.NERRS:rkblhwq:1,2017-07-06T22:45:00Z,26.0257,-81.7332,2.26,14.9,1111122 
NERRS,ioos:station:NOAA.NERRS:rkblhwq:1,2017-07-06T23:45:00Z,26.0257,-81.7332,1.96,15.3,1111122 
NERRS,ioos:station:NOAA.NERRS:rkblhwq:1,2017-07-07T00:45:00Z,26.0257,-81.7332,2.01,12.2,1111122 
NERRS,ioos:station:NOAA.NERRS:rkblhwq:1,2017-07-07T01:45:00Z,26.0257,-81.7332,2.47,16.7,1111122 
NERRS,ioos:station:NOAA.NERRS:rkblhwq:1,2017-07-07T02:45:00Z,26.0257,-81.7332,2.91,17.8,1111122 
NERRS,ioos:station:NOAA.NERRS:rkblhwq:1,2017-07-07T03:45:00Z,26.0257,-81.7332,3.4,19.1,1111122 
NERRS,ioos:station:NOAA.NERRS:rkblhwq:1,2017-07-07T04:45:00Z,26.0257,-81.7332,3.84,20.3,1111122 
NERRS,ioos:station:NOAA.NERRS:rkblhwq:1,2017-07-07T05:45:00Z,26.0257,-81.7332,4.11,19.7,1111122 
NERRS,ioos:station:NOAA.NERRS:rkblhwq:1,2017-07-07T06:45:00Z,26.0257,-81.7332,4.08,20.1,1111122 
NERRS,ioos:station:NOAA.NERRS:rkblhwq:1,2017-07-07T07:45:00Z,26.0257,-81.7332,3.88,18.7,1111122 
NERRS,ioos:station:NOAA.NERRS:rkblhwq:1,2017-07-07T08:45:00Z,26.0257,-81.7332,3.59,19.9,1111122 
NERRS,ioos:station:NOAA.NERRS:rkblhwq:1,2017-07-07T09:45:00Z,26.0257,-81.7332,3.34,18.5,1111122 
NERRS,ioos:station:NOAA.NERRS:rkblhwq:1,2017-07-07T10:45:00Z,26.0257,-81.7332,3.25,18.4,1111122 
NERRS,ioos:station:NOAA.NERRS:rkblhwq:1,2017-07-07T11:45:00Z,26.0257,-81.7332,3.3,18.5,1111122 
NERRS,ioos:station:NOAA.NERRS:rkblhwq:1,2017-07-07T12:45:00Z,26.0257,-81.7332,3.62,20.6,1111122 
NERRS,ioos:station:NOAA.NERRS:rkblhwq:1,2017-07-07T13:45:00Z,26.0257,-81.7332,4.02,19.4,1111122 
NERRS,ioos:station:NOAA.NERRS:rkblhwq:1,2017-07-07T14:45:00Z,26.0257,-81.7332,4.41,23.2,1111122 
NERRS,ioos:station:NOAA.NERRS:rkblhwq:1,2017-07-07T15:45:00Z,26.0257,-81.7332,4.76,24.2,1111122 
NERRS,ioos:station:NOAA.NERRS:rkblhwq:1,2017-07-07T17:45:00Z,26.0257,-81.7332,4.9,24.0,1111122 
NERRS,ioos:station:NOAA.NERRS:rkblhwq:1,2017-07-07T18:45:00Z,26.0257,-81.7332,4.56,21.8,1111122 
NERRS,ioos:station:NOAA.NERRS:rkblhwq:1,2017-07-07T19:45:00Z,26.0257,-81.7332,4.06,21.7,1111122 
NERRS,ioos:station:NOAA.NERRS:rkblhwq:1,2017-07-07T20:45:00Z,26.0257,-81.7332,3.52,17.5,1111122 
NERRS,ioos:station:NOAA.NERRS:rkblhwq:1,2017-07-07T21:45:00Z,26.0257,-81.7332,2.95,21.5,1111122 
NERRS,ioos:station:NOAA.NERRS:rkblhwq:1,2017-07-07T22:45:00Z,26.0257,-81.7332,2.48,16.3,1111122 
NERRS,ioos:station:NOAA.NERRS:rkblhwq:1,2017-07-07T23:45:00Z,26.0257,-81.7332,2.1,11.5,1111122 
NERRS,ioos:station:NOAA.NERRS:rkblhwq:1,2017-07-08T00:45:00Z,26.0257,-81.7332,1.9,12.4,1111122 
NERRS,ioos:station:NOAA.NERRS:rkblhwq:1,2017-07-08T01:45:00Z,26.0257,-81.7332,2.23,19.7,1111122 
NERRS,ioos:station:NOAA.NERRS:rkblhwq:1,2017-07-08T02:45:00Z,26.0257,-81.7332,2.69,17.1,1111122 
NERRS,ioos:station:NOAA.NERRS:rkblhwq:1,2017-07-08T03:45:00Z,26.0257,-81.7332,3.2,18.6,1111122 
NERRS,ioos:station:NOAA.NERRS:rkblhwq:1,2017-07-08T04:45:00Z,26.0257,-81.7332,3.73,20.1,1111122 
NERRS,ioos:station:NOAA.NERRS:rkblhwq:1,2017-07-08T05:45:00Z,26.0257,-81.7332,4.21,21.4,1111122 
NERRS,ioos:station:NOAA.NERRS:rkblhwq:1,2017-07-08T06:45:00Z,26.0257,-81.7332,4.42,21.3,1111122 
NERRS,ioos:station:NOAA.NERRS:rkblhwq:1,2017-07-08T07:45:00Z,26.0257,-81.7332,4.22,21.0,1111122 
NERRS,ioos:station:NOAA.NERRS:rkblhwq:1,2017-07-08T08:45:00Z,26.0257,-81.7332,3.87,21.7,1111122 
NERRS,ioos:station:NOAA.NERRS:rkblhwq:1,2017-07-08T09:45:00Z,26.0257,-81.7332,3.52,20.9,1111122 
NERRS,ioos:station:NOAA.NERRS:rkblhwq:1,2017-07-08T10:45:00Z,26.0257,-81.7332,3.26,19.6,1111122 
NERRS,ioos:station:NOAA.NERRS:rkblhwq:1,2017-07-08T11:45:00Z,26.0257,-81.7332,3.19,19.2,1111122 
NERRS,ioos:station:NOAA.NERRS:rkblhwq:1,2017-07-08T12:45:00Z,26.0257,-81.7332,3.38,20.5,1111122 
NERRS,ioos:station:NOAA.NERRS:rkblhwq:1,2017-07-08T13:45:00Z,26.0257,-81.7332,3.8,19.8,1111122 
NERRS,ioos:station:NOAA.NERRS:rkblhwq:1,2017-07-08T14:45:00Z,26.0257,-81.7332,4.26,22.1,1111122 
NERRS,ioos:station:NOAA.NERRS:rkblhwq:1,2017-07-08T15:45:00Z,26.0257,-81.7332,4.64,23.9,1111122 
NERRS,ioos:station:NOAA.NERRS:rkblhwq:1,2017-07-08T16:45:00Z,26.0257,-81.7332,4.93,22.6,1111122 
NERRS,ioos:station:NOAA.NERRS:rkblhwq:1,2017-07-08T17:45:00Z,26.0257,-81.7332,5.01,24.2,1111122 
NERRS,ioos:station:NOAA.NERRS:rkblhwq:1,2017-07-08T18:45:00Z,26.0257,-81.7332,4.75,22.7,1111122 
NERRS,ioos:station:NOAA.NERRS:rkblhwq:1,2017-07-08T19:45:00Z,26.0257,-81.7332,4.37,21.2,1111122 
NERRS,ioos:station:NOAA.NERRS:rkblhwq:1,2017-07-08T20:45:00Z,26.0257,-81.7332,3.78,18.6,1111122 
NERRS,ioos:station:NOAA.NERRS:rkblhwq:1,2017-07-08T21:45:00Z,26.0257,-81.7332,3.23,19.2,1111122 
NERRS,ioos:station:NOAA.NERRS:rkblhwq:1,2017-07-08T23:45:00Z,26.0257,-81.7332,2.27,16.7,1111122 
NERRS,ioos:station:NOAA.NERRS:rkblhwq:1,2017-07-09T00:45:00Z,26.0257,-81.7332,1.9,13.0,1111122 
NERRS,ioos:station:NOAA.NERRS:rkblhwq:1,2017-07-09T01:45:00Z,26.0257,-81.7332,1.93,13.2,1111122 
NERRS,ioos:station:NOAA.NERRS:rkblhwq:1,2017-07-09T02:45:00Z,26.0257,-81.7332,2.38,16.6,1111122 
NERRS,ioos:station:NOAA.NERRS:rkblhwq:1,2017-07-09T03:45:00Z,26.0257,-81.7332,2.83,18.9,1111122 
NERRS,ioos:station:NOAA.NERRS:rkblhwq:1,2017-07-09T04:45:00Z,26.0257,-81.7332,3.32,19.9,1111122 
NERRS,ioos:station:NOAA.NERRS:rkblhwq:1,2017-07-09T05:45:00Z,26.0257,-81.7332,3.83,21.6,1111122 
NERRS,ioos:station:NOAA.NERRS:rkblhwq:1,2017-07-09T06:45:00Z,26.0257,-81.7332,4.18,22.5,1111122 
NERRS,ioos:station:NOAA.NERRS:rkblhwq:1,2017-07-09T07:45:00Z,26.0257,-81.7332,4.28,22.3,1111122 
NERRS,ioos:station:NOAA.NERRS:rkblhwq:1,2017-07-09T08:45:00Z,26.0257,-81.7332,4.03,21.7,1111122 
NERRS,ioos:station:NOAA.NERRS:rkblhwq:1,2017-07-09T09:45:00Z,26.0257,-81.7332,3.68,21.5,1111122 
NERRS,ioos:station:NOAA.NERRS:rkblhwq:1,2017-07-09T10:45:00Z,26.0257,-81.7332,3.38,21.6,1111122 
NERRS,ioos:station:NOAA.NERRS:rkblhwq:1,2017-07-09T11:45:00Z,26.0257,-81.7332,3.17,20.5,1111122 
NERRS,ioos:station:NOAA.NERRS:rkblhwq:1,2017-07-09T12:45:00Z,26.0257,-81.7332,3.19,19.8,1111122 
NERRS,ioos:station:NOAA.NERRS:rkblhwq:1,2017-07-09T13:45:00Z,26.0257,-81.7332,3.47,22.0,1111122 
NERRS,ioos:station:NOAA.NERRS:rkblhwq:1,2017-07-09T14:45:00Z,26.0257,-81.7332,3.92,20.4,1111122 
NERRS,ioos:station:NOAA.NERRS:rkblhwq:1,2017-07-09T15:45:00Z,26.0257,-81.7332,4.37,23.3,1111122 
NERRS,ioos:station:NOAA.NERRS:rkblhwq:1,2017-07-09T17:45:00Z,26.0257,-81.7332,5.0,25.3,1111122 
NERRS,ioos:station:NOAA.NERRS:rkblhwq:1,2017-07-09T18:45:00Z,26.0257,-81.7332,4.93,19.7,1111122 
NERRS,ioos:station:NOAA.NERRS:rkblhwq:1,2017-07-09T19:45:00Z,26.0257,-81.7332,4.54,23.6,1111122 
NERRS,ioos:station:NOAA.NERRS:rkblhwq:1,2017-07-09T20:45:00Z,26.0257,-81.7332,4.07,23.9,1111122 
NERRS,ioos:station:NOAA.NERRS:rkblhwq:1,2017-07-09T21:45:00Z,26.0257,-81.7332,3.5,22.7,1111122 
NERRS,ioos:station:NOAA.NERRS:rkblhwq:1,2017-07-09T22:45:00Z,26.0257,-81.7332,2.97,20.5,1111122 
NERRS,ioos:station:NOAA.NERRS:rkblhwq:1,2017-07-09T23:45:00Z,26.0257,-81.7332,2.49,17.4,1111122 
NERRS,ioos:station:NOAA.NERRS:rkblhwq:1,2017-07-10T00:45:00Z,26.0257,-81.7332,2.08,15.0,1111122 
NERRS,ioos:station:NOAA.NERRS:rkblhwq:1,2017-07-10T01:45:00Z,26.0257,-81.7332,1.84,20.1,1111122 
NERRS,ioos:station:NOAA.NERRS:rkblhwq:1,2017-07-10T02:45:00Z,26.0257,-81.7332,2.12,16.7,1111122 
NERRS,ioos:station:NOAA.NERRS:rkblhwq:1,2017-07-10T03:45:00Z,26.0257,-81.7332,2.56,17.9,1111122 
NERRS,ioos:station:NOAA.NERRS:rkblhwq:1,2017-07-10T04:45:00Z,26.0257,-81.7332,3.06,19.7,1111122 
NERRS,ioos:station:NOAA.NERRS:rkblhwq:1,2017-07-10T05:45:00Z,26.0257,-81.7332,3.57,21.3,1111122 
NERRS,ioos:station:NOAA.NERRS:rkblhwq:1,2017-07-10T06:45:00Z,26.0257,-81.7332,4.05,22.2,1111122 
NERRS,ioos:station:NOAA.NERRS:rkblhwq:1,2017-07-10T07:45:00Z,26.0257,-81.7332,4.31,23.1,1111122 
NERRS,ioos:station:NOAA.NERRS:rkblhwq:1,2017-07-10T08:45:00Z,26.0257,-81.7332,4.21,21.9,1111122 
NERRS,ioos:station:NOAA.NERRS:rkblhwq:1,2017-07-10T09:45:00Z,26.0257,-81.7332,3.9,21.6,1111122 
NERRS,ioos:station:NOAA.NERRS:rkblhwq:1,2017-07-10T10:45:00Z,26.0257,-81.7332,3.61,21.6,1111122 
NERRS,ioos:station:NOAA.NERRS:rkblhwq:1,2017-07-10T11:45:00Z,26.0257,-81.7332,3.31,21.5,1111122 
NERRS,ioos:station:NOAA.NERRS:rkblhwq:1,2017-07-10T12:45:00Z,26.0257,-81.7332,3.07,20.0,1111122 
NERRS,ioos:station:NOAA.NERRS:rkblhwq:1,2017-07-10T13:45:00Z,26.0257,-81.7332,3.2,20.6,1111122 
NERRS,ioos:station:NOAA.NERRS:rkblhwq:1,2017-07-10T14:45:00Z,26.0257,-81.7332,3.59,20.6,1111122 
NERRS,ioos:station:NOAA.NERRS:rkblhwq:1,2017-07-10T15:45:00Z,26.0257,-81.7332,4.11,21.4,1111122 
NERRS,ioos:station:NOAA.NERRS:rkblhwq:1,2017-07-10T16:45:00Z,26.0257,-81.7332,4.54,23.4,1111122 
NERRS,ioos:station:NOAA.NERRS:rkblhwq:1,2017-07-10T17:45:00Z,26.0257,-81.7332,4.92,24.6,1111122 
NERRS,ioos:station:NOAA.NERRS:rkblhwq:1,2017-07-10T18:45:00Z,26.0257,-81.7332,5.03,24.4,1111122 
NERRS,ioos:station:NOAA.NERRS:rkblhwq:1,2017-07-10T19:45:00Z,26.0257,-81.7332,4.78,21.8,1111122 
NERRS,ioos:station:NOAA.NERRS:rkblhwq:1,2017-07-10T20:45:00Z,26.0257,-81.7332,4.44,22.5,1111122 
NERRS,ioos:station:NOAA.NERRS:rkblhwq:1,2017-07-10T21:45:00Z,26.0257,-81.7332,3.9,22.3,1111122 
NERRS,ioos:station:NOAA.NERRS:rkblhwq:1,2017-07-10T22:45:00Z,26.0257,-81.7332,3.34,22.2,1111122 
NERRS,ioos:station:NOAA.NERRS:rkblhwq:1,2017-07-10T23:45:00Z,26.0257,-81.7332,2.84,19.6,1111122 
NERRS,ioos:station:NOAA.NERRS:rkblhwq:1,2017-07-11T00:45:00Z,26.0257,-81.7332,2.39,18.1,1111122 
NERRS,ioos:station:NOAA.NERRS:rkblhwq:1,2017-07-11T01:45:00Z,26.0257,-81.7332,2.04,16.8,1111122 
NERRS,ioos:station:NOAA.NERRS:rkblhwq:1,2017-07-11T02:45:00Z,26.0257,-81.7332,2.0,15.4,1111122 
NERRS,ioos:station:NOAA.NERRS:rkblhwq:1,2017-07-11T03:45:00Z,26.0257,-81.7332,2.36,21.0,1111122 
NERRS,ioos:station:NOAA.NERRS:rkblhwq:1,2017-07-11T04:45:00Z,26.0257,-81.7332,2.82,19.5,1111122 
NERRS,ioos:station:NOAA.NERRS:rkblhwq:1,2017-07-11T05:45:00Z,26.0257,-81.7332,3.34,20.3,1111122 
NERRS,ioos:station:NOAA.NERRS:rkblhwq:1,2017-07-11T06:45:00Z,26.0257,-81.7332,3.82,22.0,1111122 
NERRS,ioos:station:NOAA.NERRS:rkblhwq:1,2017-07-11T07:45:00Z,26.0257,-81.7332,4.18,23.1,1111122 
NERRS,ioos:station:NOAA.NERRS:rkblhwq:1,2017-07-11T08:45:00Z,26.0257,-81.7332,4.28,23.3,1111122 
NERRS,ioos:station:NOAA.NERRS:rkblhwq:1,2017-07-11T09:45:00Z,26.0257,-81.7332,3.99,21.6,1111122 
NERRS,ioos:station:NOAA.NERRS:rkblhwq:1,2017-07-11T10:45:00Z,26.0257,-81.7332,3.63,21.6,1111122 
NERRS,ioos:station:NOAA.NERRS:rkblhwq:1,2017-07-11T11:45:00Z,26.0257,-81.7332,3.26,22.2,1111122 